Home > Weather > Gerolstein > Past weeks

Flag for Germany Past Weather in Gerolstein, Rhineland-Palatinate, Germany — Yesterday and Last 2 Weeks

Now
58 °F

Overcast.


Feels Like: 58 °F
Forecast: 47 / 65 °F
Wind: 2 mph from Northwest

Location: Nuerburg-Barweiler

Current Time: May 27, 2016 at 6:26:58 PM

Latest Report: May 27, 2016 at 6:00 PM


Visibility: 9 mi

Pressure: 29.96 "Hg

Humidity: 97%

Dew Point: 57 °F

Location of GerolsteinLocation

Past Weather in Gerolstein — Graph

°F

Gerolstein Temperature Yesterday

Maximum temperature yesterday: 68 °F (at 6:00 PM)
Minimum temperature yesterday: 43 °F (at 7:00 AM)
Average temperature yesterday: 57 °F

High & Low Weather Summary for the Past Weeks

 TemperatureHumidityPressure
High69 °F (May 21, 7:00 PM)100% (May 26, 6:00 AM)30.17 "Hg (May 26, 6:00 AM)
Low36 °F (May 15, 6:00 AM)41% (May 17, 1:00 PM)29.44 "Hg (May 12, 6:00 PM)
Average52 °F76%29.94 "Hg
* Reported May 12 4:00 PM — May 27 4:00 PM, Gerolstein, Weather by CustomWeather, © 2016

Note: Actual official high and low records may vary slightly from our data, if they occured in-between our weather recording intervals... More about our weather records

Advertising

Gerolstein Weather History for the Previous 24 Hours

Scroll right to see more
 ConditionsComfort  
Time TempWeatherWind HumidityBarometerVisibility
4:00 PM
Fri, May 27
56 °FRain. Overcast.7 mph90%29.99 "Hg4 mi
3:00 PM66 °FOvercast.5 mph67%29.93 "Hg34 mi
1:00 PM65 °FOvercast.3 mph69%29.95 "Hg22 mi
12:00 PM64 °FOvercast.3 mph72%29.96 "Hg22 mi
10:00 AM60 °FScattered clouds.3 mph82%29.97 "Hg15 mi
9:00 AM58 °FHaze.3 mph87%29.97 "Hg15 mi
7:00 AM53 °FOvercast.2 mph96%29.97 "Hg11 mi
6:00 AM54 °FLight rain. Overcast.6 mph93%29.96 "Hg7 mi
4:00 AM55 °FLight rain. Overcast.3 mph92%29.98 "Hg8 mi
3:00 AM55 °FOvercast.2 mph96%29.97 "Hg4 mi
1:00 AM56 °FOvercast.1 mph91%29.97 "Hg11 mi
12:00 AM57 °FOvercast.2 mph91%29.98 "Hg11 mi
10:00 PM
Thu, May 26
62 °FOvercast.3 mph65%29.96 "Hg22 mi
9:00 PM63 °FOvercast.2 mph63%29.95 "Hg25 mi
7:00 PM66 °FOvercast.3 mph58%29.93 "Hg31 mi
6:00 PM68 °FOvercast.2 mph52%29.93 "Hg28 mi
Weather by CustomWeather, © 2016

See weather overviewHow to use our weather pages